Weather History for KBKF - July, 2013

Change the Weather History Date:

Thursday, July 4, 2013

  Actual Average Record
Temperature  
Mean Temperature 76 °F -  
Max Temperature 91 °F 86 °F 96 °F (1996)
Min Temperature 60 °F 57 °F 48 °F (2005)
Cooling Degree Days 10    
Growing Degree Days 26 (Base 50)    
Moisture  
Dew Point 42 °F    
Average Humidity 34    
Maximum Humidity 55    
Minimum Humidity 14    
Precipitation  
Precipitation 0.00 in - - ()
Sea Level Pressure  
Sea Level Pressure 29.79 in    
Wind  
Wind Speed 8 mph (SW)    
Max Wind Speed 18 mph    
Max Gust Speed 24 mph    
Averages and records for this station are not official NWS values.
T = Trace of Precipitation, MM = Missing Value Source: NWS Daily Summary

Daily Weather History Graph

Daily Weather History Graph

Search for Another Location

Airport or City:

Trip Planner

Search our weather history database for the weather conditions in past years. The results will help you decide how hot, cold, wet, or windy it might be!

Date:

Astronomy

Jul. 04, 2013 Rise Set
Actual Time 5:36 AM MDT 8:30 PM MDT
Civil Twilight 5:04 AM MDT 9:02 PM MDT
Nautical Twilight 4:23 AM MDT 9:43 PM MDT
Astronomical Twilight 3:36 AM MDT 10:30 PM MDT
Moon 2:54 AM MDT (7/4) 5:37 PM MDT (7/4)
Length of Visible Light 15h 58m
Length of Day
14h 53m
Waning Crescent, 11% of the Moon is Illuminated
Jul 4
Waning Crescent
Jul 8
New
Jul 15
First Quarter
Jul 22
Full
Jul 29
Last Quarter

Hourly Weather History & Observations

Time (MDT) Temp. Dew Point Humidity Pressure Visibility Wind Dir Wind Speed Gust Speed Precip Events Conditions
12:55 AM 64.4 °F 46.4 °F 52% 29.80 in 25.0 mi SSW 5.8 mph - N/A   Scattered Clouds
1:55 AM 62.6 °F 46.4 °F 55% 29.80 in 25.0 mi South 6.9 mph - N/A   Scattered Clouds
2:55 AM 62.6 °F 44.6 °F 52% 29.80 in 25.0 mi SSW 8.1 mph - N/A   Scattered Clouds
3:55 AM 62.6 °F 44.6 °F 52% 29.80 in 25.0 mi SSW 5.8 mph - N/A   Scattered Clouds
4:55 AM 60.8 °F 44.6 °F 55% 29.80 in 25.0 mi South 8.1 mph - N/A   Scattered Clouds
5:55 AM 60.8 °F 44.6 °F 55% 29.82 in 70.0 mi SSW 6.9 mph - N/A   Partly Cloudy
6:55 AM 64.4 °F 44.6 °F 49% 29.83 in 70.0 mi South 5.8 mph - N/A   Partly Cloudy
7:55 AM 69.8 °F 44.6 °F 40% 29.85 in 70.0 mi SW 5.8 mph - N/A   Partly Cloudy
8:55 AM 75.2 °F 44.6 °F 34% 29.85 in 70.0 mi SW 6.9 mph - N/A   Scattered Clouds
9:55 AM 80.6 °F 42.8 °F 26% 29.84 in 70.0 mi NW 6.9 mph - N/A   Scattered Clouds
10:55 AM 84.2 °F 41.0 °F 22% 29.83 in 70.0 mi NNW 11.5 mph - N/A   Scattered Clouds
11:55 AM 86.0 °F 39.2 °F 19% 29.82 in 70.0 mi North 13.8 mph - N/A   Scattered Clouds
12:55 PM 87.8 °F 39.2 °F 18% 29.80 in 70.0 mi North 13.8 mph - N/A   Scattered Clouds
1:55 PM 89.6 °F 39.2 °F 17% 29.78 in 70.0 mi NNE 13.8 mph - N/A   Scattered Clouds
2:55 PM 87.8 °F 37.4 °F 17% 29.77 in 70.0 mi NE 9.2 mph 20.7 mph N/A   Scattered Clouds
3:55 PM 91.4 °F 35.6 °F 14% 29.75 in 25.0 mi NNE 10.4 mph 20.7 mph N/A   Mostly Cloudy
4:55 PM 87.8 °F 33.8 °F 15% 29.75 in 25.0 mi NNE 9.2 mph - N/A   Mostly Cloudy
5:55 PM 86.0 °F 41.0 °F 20% 29.76 in 25.0 mi West 18.4 mph - N/A   Mostly Cloudy
6:55 PM 82.4 °F 44.6 °F 26% 29.77 in 70.0 mi West 18.4 mph 24.2 mph N/A   Mostly Cloudy
7:55 PM 77.0 °F 42.8 °F 29% 29.78 in 70.0 mi SSW 9.2 mph - N/A   Mostly Cloudy
8:55 PM 75.2 °F 44.6 °F 34% 29.78 in 25.0 mi SW 3.5 mph - N/A   Mostly Cloudy
9:55 PM 75.2 °F 44.6 °F 34% 29.77 in 25.0 mi SSW 3.5 mph - N/A   Mostly Cloudy
10:55 PM 71.6 °F 44.6 °F 38% 29.76 in 25.0 mi South 5.8 mph - N/A   Mostly Cloudy
11:55 PM 71.6 °F 42.8 °F 35% 29.76 in 25.0 mi ESE 3.5 mph - N/A   Scattered Clouds